Weather History for Bettles, AK

Change the Weather History Date:

Tuesday, August 12, 2014

  Actual Average Record
Temperature  
Mean Temperature 64 °F -  
Max Temperature 72 °F 65 °F 86 °F (1990)
Min Temperature 55 °F 44 °F 29 °F (1969)
Degree Days  
Heating Degree Days 2    
Growing Degree Days 14 (Base 50)    
Moisture  
Dew Point 50 °F    
Average Humidity 65    
Maximum Humidity 90    
Minimum Humidity 34    
Precipitation  
Precipitation 0.12 in - - ()
Sea Level Pressure  
Sea Level Pressure 29.66 in    
Wind  
Wind Speed 7 mph (ENE)    
Max Wind Speed 14 mph    
Max Gust Speed 22 mph    
Visibility 10 miles    
Events Fog , Rain , Thunderstorm    
Averages and records for this station are not official NWS values.
T = Trace of Precipitation, MM = Missing Value Source: NWS Daily Summary

Daily Weather History Graph

Daily Weather History Graph

Search for Another Location

Airport:

Trip Planner

Search our weather history database for the weather conditions in past years. The results will help you decide how hot, cold, wet, or windy it might be!

Date:

Astronomy

Aug. 12, 2014 Rise Set
Actual Time 5:25 AM AKDT 10:53 PM AKDT
Civil Twilight 3:54 AM AKDT 12:21 AM AKDT
Nautical Twilight Sun does not rise Sun does not rise
Astronomical Twilight Sun does not rise Sun does not rise
Moon 10:19 PM AKDT (8/12) 9:29 AM AKDT (8/12)
Length of Visible Light 20h 27m
Length of Day
17h 28m
Waning Gibbous, 94% of the Moon is Illuminated
Aug 12
Waning Gibbous
Aug 17
Last Quarter
Aug 25
New
Sep 2
First Quarter
Sep 8
Full

Hourly Weather History & Observations

Time (AKDT) Temp. Dew Point Humidity Pressure Visibility Wind Dir Wind Speed Gust Speed Precip Events Conditions
12:53 AM 60.1 °F 45.0 °F 57% 29.73 in 10.0 mi NE 10.4 mph - N/A   Mostly Cloudy
1:53 AM 59.0 °F 46.0 °F 62% 29.72 in 10.0 mi NNE 4.6 mph - N/A   Mostly Cloudy
2:53 AM 59.0 °F 45.0 °F 60% 29.71 in 10.0 mi NE 6.9 mph - N/A   Mostly Cloudy
4:53 AM 61.0 °F 48.0 °F 62% 29.69 in 10.0 mi NE 10.4 mph 21.9 mph N/A   Mostly Cloudy
5:53 AM 59.0 °F 48.9 °F 69% 29.68 in 10.0 mi NE 12.7 mph 18.4 mph 0.00 in Rain Light Rain
6:53 AM 57.9 °F 48.9 °F 72% 29.68 in 10.0 mi NE 13.8 mph 21.9 mph 0.00 in   Mostly Cloudy
7:53 AM 57.0 °F 50.0 °F 77% 29.68 in 10.0 mi NE 12.7 mph - 0.01 in Rain Light Rain
9:53 AM 55.9 °F 53.1 °F 90% 29.68 in 10.0 mi North 4.6 mph - 0.03 in Fog Overcast
10:53 AM 59.0 °F 54.0 °F 83% 29.66 in 10.0 mi Variable 4.6 mph - 0.00 in   Overcast
11:53 AM 61.0 °F 54.0 °F 78% 29.66 in 10.0 mi North 3.5 mph - N/A   Mostly Cloudy
12:53 PM 66.0 °F 53.1 °F 63% 29.65 in 10.0 mi Variable 3.5 mph - N/A   Mostly Cloudy
1:53 PM 69.1 °F 50.0 °F 51% 29.63 in 10.0 mi Variable 5.8 mph 17.3 mph N/A   Scattered Clouds
2:53 PM 70.0 °F 48.9 °F 47% 29.62 in 10.0 mi NNE 9.2 mph - N/A   Scattered Clouds
3:53 PM 71.1 °F 48.9 °F 45% 29.61 in 10.0 mi Calm Calm - N/A   Mostly Cloudy
4:53 PM 70.0 °F 48.0 °F 46% 29.61 in 10.0 mi Calm Calm - N/A   Mostly Cloudy
5:53 PM 68.0 °F 52.0 °F 56% 29.62 in 10.0 mi ESE 11.5 mph - 0.00 in Rain , Thunderstorm Light Thunderstorms and Rain
6:25 PM 62.1 °F 53.1 °F 72% 29.61 in 10.0 mi SE 9.2 mph - 0.00 in Rain Light Rain
6:53 PM 62.1 °F 52.0 °F 70% 29.64 in 10.0 mi SE 5.8 mph - 0.00 in   Mostly Cloudy
7:53 PM 61.0 °F 52.0 °F 72% 29.64 in 10.0 mi Calm Calm - N/A   Mostly Cloudy
8:53 PM 59.0 °F 53.1 °F 81% 29.65 in 10.0 mi Calm Calm - N/A   Mostly Cloudy
9:53 PM 57.9 °F 50.0 °F 75% 29.68 in 10.0 mi ESE 3.5 mph - N/A   Mostly Cloudy
10:53 PM 57.9 °F 48.0 °F 70% 29.69 in 10.0 mi SE 6.9 mph - N/A   Mostly Cloudy
11:53 PM 57.0 °F 46.9 °F 69% 29.70 in 10.0 mi East 3.5 mph - N/A   Mostly Cloudy